TimeCST,TemperatureF,Dew PointF,Humidity,Sea Level PressureIn,VisibilityMPH,Wind Direction,Wind SpeedMPH,Gust SpeedMPH,PrecipitationIn,Events,Conditions,WindDirDegrees,DateUTC
12:00 AM,72,56,48,29.85,12,East,11.5,,,,,100,2013-01-29 06:00:00
12:00 AM,71.6,57.2,60,30.03,-9999.0,East,11.5,23.0,N/A,,Clear,100,2013-01-29 06:00:00
1:00 AM,69.8,57.2,64,30.02,-9999.0,East,11.5,23.0,N/A,,Clear,100,2013-01-29 07:00:00
2:00 AM,69.8,57.2,64,30.00,-9999.0,ESE,17.3,-,N/A,,Clear,110,2013-01-29 08:00:00
3:00 AM,69,57,57,,12,ESE,17.3,,,,,110,2013-01-29 09:00:00
3:00 AM,69.8,57.2,64,30.01,-9999.0,ESE,17.3,-,N/A,,Clear,110,2013-01-29 09:00:00
4:00 AM,68.0,57.2,68,30.01,-9999.0,East,13.8,-,N/A,,Clear,80,2013-01-29 10:00:00
5:00 AM,68.0,57.2,68,30.02,-9999.0,East,11.5,23.0,N/A,,Clear,100,2013-01-29 11:00:00
6:00 AM,68,57,59,29.89,12,ESE,12.7,,,,Scattered Clouds,110,2013-01-29 12:00:00
6:00 AM,68.0,57.2,68,30.03,6.2,ESE,12.7,24.2,N/A,,Partly Cloudy,110,2013-01-29 12:00:00
7:00 AM,69.8,57.2,64,30.05,6.2,East,11.5,23.0,N/A,,Partly Cloudy,100,2013-01-29 13:00:00
8:00 AM,73.4,59.0,61,30.06,6.2,ESE,11.5,23.0,N/A,,Partly Cloudy,110,2013-01-29 14:00:00
9:00 AM,78,59,41,29.91,12,East,13.8,,,,Scattered Clouds,100,2013-01-29 15:00:00
9:00 AM,78.8,59.0,51,30.07,6.2,East,13.8,26.5,N/A,,Partly Cloudy,100,2013-01-29 15:00:00
10:00 AM,78.8,59.0,51,30.06,6.2,East,13.8,25.3,N/A,,Partly Cloudy,100,2013-01-29 16:00:00
11:00 AM,80.6,59.0,48,30.04,6.2,East,16.1,28.8,N/A,,Partly Cloudy,100,2013-01-29 17:00:00
12:00 PM,82,60,36,29.83,12,East,12.7,,,,Scattered Clouds,100,2013-01-29 18:00:00
12:00 PM,82.4,59.0,45,30.02,6.2,East,12.7,24.2,N/A,,Partly Cloudy,100,2013-01-29 18:00:00
1:00 PM,78.8,59.0,51,30.01,6.2,ESE,17.3,28.8,N/A,,Scattered Clouds,110,2013-01-29 19:00:00
2:00 PM,78.8,59.0,51,29.98,6.2,East,15.0,26.5,N/A,,Scattered Clouds,100,2013-01-29 20:00:00
3:00 PM,80,58,37,29.81,12,East,16.1,,,,Partly Cloudy,100,2013-01-29 21:00:00
3:00 PM,80.6,59.0,48,29.97,6.2,East,16.1,-,N/A,,Scattered Clouds,100,2013-01-29 21:00:00
4:00 PM,78.8,59.0,51,29.97,6.2,East,11.5,-,N/A,,Scattered Clouds,100,2013-01-29 22:00:00
5:00 PM,75.2,60.8,61,29.98,6.2,ESE,10.4,-,N/A,,Partly Cloudy,110,2013-01-29 23:00:00
6:00 PM,72,60,58,29.88,12,ESE,10.4,,,,Scattered Clouds,110,2013-01-30 00:00:00
6:00 PM,71.6,60.8,69,29.99,6.2,ESE,10.4,-,N/A,,Partly Cloudy,110,2013-01-30 00:00:00
7:00 PM,71.6,60.8,69,30.00,-9999.0,East,10.4,-,N/A,,Clear,100,2013-01-30 01:00:00
8:00 PM,71.6,60.8,69,30.01,-9999.0,East,11.5,24.2,N/A,,Clear,100,2013-01-30 02:00:00
9:00 PM,72,57,49,29.86,12,East,13.8,,,,Scattered Clouds,80,2013-01-30 03:00:00
9:00 PM,71.6,57.2,60,30.03,-9999.0,East,13.8,25.3,N/A,,Clear,80,2013-01-30 03:00:00
10:00 PM,69.8,59.0,68,30.04,-9999.0,ESE,11.5,23.0,N/A,,Clear,110,2013-01-30 04:00:00
11:00 PM,69.8,59.0,68,30.03,-9999.0,East,11.5,24.2,N/A,,Clear,100,2013-01-30 05:00:00